Location: Hylvaty SDH
(49.9612°N, 16.4057°E)
Time: 18:55:53
(UTC+02:00)

Transit 4A - Pass Details

Date: 10 August 2020
Orbit: 862 x 982 km, 66.8° (Epoch: 28 September)

Event Time Altitude Azimuth Distance (km) Brightness Sun altitude
Rises 16:24:10 0° 319° (NW) 3,619 11.2 36.3°
Reaches altitude 10° 16:27:11 10° 332° (NNW) 2,691 10.5 35.8°
Maximum altitude 16:32:22 26° 28° (NNE) 1,812 9.3 35.0°
Drops below altitude 10° 16:37:37 10° 84° (E) 2,730 9.9 34.2°
Sets 16:40:41 0° 96° (E) 3,682 10.6 33.8°
